User: anonymous   Login
Location: Unspecified
(0.0000°N, 0.0000°E)
Time: 15:45:10
(UTC+00:00)
Language:

Gonets-D1 - Orbit

View from above orbital plane
View from above orbital plane
View from above satellite
View from above satellite

Ground track
Ground track

The orbit data is extracted from the following two-line orbital elements,

1 24726U 97006B   18260.46039405 +.00000006 +00000-0 -23783-4 0  9995
2 24726 082.5955 260.7725 0005905 031.6025 328.5420 12.61339080993819
Epoch (UTC): 17 September 2018 11:02:58
Eccentricity: 0.0005905
inclination: 82.5955°
perigee height: 1413 km
apogee height: 1422 km
right ascension of ascending node: 260.7725°
argument of perigee: 31.6025°
revolutions per day: 12.61339080
mean anomaly at epoch: 328.5420°
orbit number at epoch: 99381

The dashed part of the orbit path shows where the satellite is in the earth's shadow,  

DLR